Temp
41 41 41 41 39 38 37 35 34 33 32 29 27 27 26 25 25 24 25 24 24 22 21 21 22 21 22 21 20 21 21 22 23
42 42 42 41 40 38 37 35 33 32 31 29 28 27 26 26 25 24 24 23 22 23 21 22 21 20 19 19 20 21 21 22 22
42 42 42 41 40 39 37 35 34 32 31 30 28 28 27 26 24 24 24 23 22 23 23 22 20 20 21 20 21 21 22 22 23
42 41 40 40 40 39 37 35 34 32 31 30 29 28 28 27 25 24 23 23 23 23 23 22 21 21 21 21 21 22 22 21 23
41 40 40 39 39 38 36 35 34 32 31 30 29 29 28 27 26 25 24 24 23 23 23 23 23 22 22 22 22 23 22 22 23
41 39 39 39 39 37 35 34 33 32 30 30 30 28 28 27 26 25 25 25 24 24 24 24 24 23 23 23 23 22 22 23 23
41 39 38 39 39 37 35 33 32 31 30 30 30 29 29 28 26 26 26 25 25 25 24 24 24 24 23 23 23 23 24 24 23
39 40 39 38 38 36 34 32 31 30 30 29 29 28 29 27 27 27 26 25 25 25 25 25 24 24 24 24 24 24 24 24 23
38 39 39 39 37 36 34 32 31 30 30 28 28 27 28 26 25 26 27 26 26 26 25 26 25 25 25 25 26 26 24 24 23
37 37 37 38 37 36 34 33 31 30 29 28 27 26 27 26 26 26 26 25 25 25 25 25 25 25 24 25 26 23 23 24 24
35 35 35 36 37 37 34 33 32 31 30 28 27 26 27 26 25 25 25 25 25 24 25 25 25 24 25 26 25 23 23 22 22
33 33 34 35 36 37 35 34 32 31 30 28 27 27 26 26 25 25 25 25 25 25 24 24 24 25 25 25 24 23 22 22 23
33 33 32 33 34 34 34 33 32 31 30 29 28 27 26 26 26 26 26 25 25 24 25 24 25 25 25 24 24 23 22 22 24
33 32 32 32 33 33 33 33 32 31 30 29 29 28 27 26 26 26 26 25 25 25 24 25 25 25 25 24 23 22 22 22 22
32 32 31 32 31 31 31 30 30 31 30 29 29 28 27 26 25 25 26 25 24 24 24 24 24 24 24 24 23 22 22 22 22
31 31 30 30 30 29 28 28 28 29 29 27 27 27 26 26 25 25 25 24 24 24 23 23 24 23 23 23 24 23 20 21 21
31 30 30 29 28 28 26 25 25 25 25 25 25 25 25 24 24 24 24 21 20 22 21 21 20 21 21 23 23 23 20 19 20
30 29 28 28 27 26 26 24 24 24 24 23 23 24 23 22 22 21 20 19 18 20 20 19 19 20 21 22 23 23 22 19 19
27 27 27 27 26 26 26 25 25 22 22 23 23 23 24 24 25 23 21 20 19 19 19 20 19 19 20 21 21 21 21 20 20
24 26 25 25 25 25 24 25 24 23 22 21 21 21 22 22 22 22 22 21 21 21 21 20 19 21 19 20 20 20 19 19 19
Height
684 687 689 693 700 707 714 720 727 732 738 746 751 755 758 762 766 770 773 777 778 782 785 787 789 791 794 796 799 802 802 804 804
681 680 680 686 694 703 710 718 724 729 734 741 746 750 754 757 761 765 768 771 774 777 780 783 785 785 789 792 795 796 798 799 798
677 676 680 683 690 698 706 713 719 726 731 736 742 745 749 753 757 761 764 767 770 773 776 779 780 783 787 788 790 792 793 793 792
673 678 685 686 690 696 704 710 716 723 729 734 739 742 745 749 752 757 761 764 767 770 773 776 778 781 783 785 786 787 788 788 789
678 684 684 687 691 697 703 710 715 722 727 731 735 738 742 746 749 753 757 761 764 767 770 772 774 776 779 781 782 783 785 785 785
675 683 685 686 690 697 704 710 716 720 725 728 732 736 739 742 747 750 753 756 759 762 765 767 769 772 774 776 778 780 782 782 782
671 680 686 684 687 695 703 709 715 720 724 727 729 733 735 739 743 746 749 754 756 759 761 764 766 769 770 773 775 777 778 779 780
679 679 680 683 686 692 700 707 713 717 721 725 727 731 734 738 742 743 747 751 754 757 759 762 764 766 768 770 772 773 775 778 779
683 681 677 678 685 690 697 703 709 714 717 722 725 730 731 735 741 742 744 747 750 754 758 760 762 764 766 768 769 767 771 776 778
685 684 682 678 681 688 693 699 705 710 714 718 722 726 730 733 736 740 743 746 750 750 753 757 759 762 765 768 769 771 772 774 776
685 685 684 683 680 683 690 696 701 707 711 715 719 723 726 730 732 737 741 744 748 751 753 755 756 759 760 762 766 768 771 773 775
687 687 686 684 681 681 687 693 698 704 709 713 716 719 722 725 728 731 733 736 739 743 747 749 752 755 758 760 761 763 767 770 772
688 688 689 687 686 685 688 693 697 702 706 710 712 715 719 723 727 729 731 735 737 739 741 744 746 750 754 758 761 762 764 766 768
689 690 691 690 689 690 691 694 696 699 702 705 709 713 716 720 724 727 729 732 735 740 740 740 740 742 747 754 757 758 761 764 765
690 691 694 694 694 695 696 697 698 698 700 703 706 710 714 718 721 723 726 730 732 734 739 741 740 739 739 747 753 756 757 759 763
692 694 696 697 697 699 700 701 701 700 700 703 704 707 710 715 718 720 723 728 728 731 731 739 740 742 740 737 748 752 754 757 759
693 696 698 699 700 700 704 706 706 705 705 706 707 708 710 714 715 715 712 718 713 726 729 728 732 730 730 726 736 745 748 754 755
695 697 698 700 702 704 704 707 707 707 709 709 710 711 712 714 715 718 722 717 716 728 731 731 728 727 726 724 724 735 742 748 752
700 700 701 701 703 704 705 706 706 709 710 711 712 713 713 712 712 715 719 721 724 727 728 724 722 724 726 717 720 728 735 742 749
705 703 703 704 705 706 706 707 708 710 711 711 711 712 713 712 712 713 714 718 719 719 718 720 720 717 719 718 722 725 730 737 743
Wind_Speed
14 14 13 14 15 14 17 18 20 21 23 22 24 25 26 26 25 24 23 21 22 20 20 20 21 26 23 29 21 21 20 22 21
13 11 14 12 14 15 17 18 20 21 21 21 21 23 23 22 22 23 21 22 22 20 19 20 23 24 21 24 23 23 22 22 20
11 9 4 9 10 15 17 17 18 19 20 19 19 20 20 20 20 19 21 17 19 19 18 19 18 21 21 22 26 23 21 21 22
8 8 6 6 9 14 16 16 16 17 18 17 16 17 18 18 20 19 20 15 16 20 17 19 19 19 17 20 20 19 16 20 21
13 3 5 7 9 13 15 15 15 16 16 16 16 17 17 16 16 17 17 18 16 17 17 16 16 16 17 18 17 17 17 17 17
9 5 6 8 11 11 14 15 15 16 17 16 15 16 17 16 16 16 17 18 17 16 16 16 15 15 16 15 16 15 14 13 12
5 8 8 9 11 11 15 16 16 16 16 15 16 17 17 17 18 18 17 15 16 15 15 15 14 15 14 14 13 14 12 9 6
2 5 10 10 11 12 15 17 18 17 16 16 16 16 16 15 16 16 17 16 15 16 15 14 14 14 14 13 15 14 13 8 7
4 5 8 10 11 13 14 18 19 18 18 18 18 18 18 17 18 17 18 18 17 15 15 13 13 13 12 12 13 16 19 11 11
2 2 5 8 11 12 16 20 21 21 20 20 20 20 19 19 19 18 18 18 19 19 17 16 15 12 12 11 8 7 12 14 13
5 4 2 5 8 12 16 19 21 20 20 20 21 21 20 20 21 20 18 18 18 18 16 16 15 13 13 10 10 7 10 13 14
8 8 6 4 6 8 12 17 20 21 20 20 21 22 23 23 24 23 23 23 23 20 18 18 15 15 13 14 13 13 14 12 12
9 11 11 7 3 1 8 11 17 20 20 21 22 22 23 23 23 23 23 23 22 21 20 19 18 15 14 14 13 13 16 16 12
9 9 11 11 9 4 0 4 11 17 19 21 20 20 21 23 22 22 22 21 20 19 20 18 17 15 15 15 16 14 19 18 15
7 8 9 9 8 8 6 1 6 12 15 17 18 18 18 19 22 22 22 21 20 20 18 16 15 16 16 14 14 16 18 21 20
6 6 6 6 5 5 7 7 4 7 10 5 9 15 18 19 20 21 18 18 20 19 16 13 12 13 15 13 17 18 22 21 21
2 3 3 3 1 1 2 4 6 8 4 4 8 12 13 15 18 18 16 2 19 15 17 17 16 17 11 16 19 16 16 21 22
2 2 2 2 2 3 3 2 3 4 4 3 5 2 3 1 4 7 13 17 34 27 22 11 10 12 16 16 14 19 18 18 20
3 3 1 3 1 1 1 1 2 3 1 2 4 3 8 10 10 11 9 11 12 23 21 19 15 12 14 7 13 17 20 22 25
3 6 6 5 3 3 2 2 3 5 4 2 3 6 7 5 8 9 10 11 10 11 15 21 22 19 16 11 9 14 17 26 26
Wind_Direction
179 191 203 191 193 198 194 199 201 206 203 208 214 217 217 218 220 227 226 222 219 220 224 226 221 235 241 240 244 254 254 252 253
190 203 189 190 180 196 191 196 198 204 206 204 209 213 217 218 217 215 218 217 220 226 217 221 222 228 235 232 237 255 251 249 253
178 179 165 169 184 187 190 194 195 199 201 202 207 212 210 215 216 217 221 218 206 210 216 215 219 220 230 229 239 242 245 250 255
133 107 146 161 183 179 184 187 183 189 193 197 201 205 203 209 203 208 212 208 209 211 212 210 213 220 222 224 233 240 235 242 252
97 100 150 167 169 174 175 179 180 180 185 193 197 196 198 207 203 199 198 204 204 208 208 215 211 209 216 228 229 231 235 238 250
136 155 164 173 166 172 175 176 178 180 187 195 191 191 196 199 196 200 205 202 205 205 209 211 211 213 220 224 225 225 233 241 258
165 160 158 188 166 170 175 179 179 184 188 191 191 191 195 194 196 200 202 201 207 204 205 209 213 212 215 219 219 221 225 235 244
314 226 177 175 176 171 175 180 181 186 188 189 191 193 194 197 204 196 198 197 198 205 201 202 214 216 214 209 213 216 203 214 186
240 238 209 182 183 181 183 185 186 186 188 187 188 194 194 188 202 198 196 189 190 194 200 209 209 217 213 215 230 234 186 194 180
136 248 275 209 187 193 193 192 191 189 190 186 187 190 195 186 190 190 193 192 195 195 201 208 212 221 227 215 223 176 192 206 209
55 38 328 244 253 193 199 198 194 192 190 188 189 191 192 189 186 190 195 199 202 206 208 207 207 214 207 206 218 229 225 214 226
63 45 25 343 259 218 198 196 195 192 194 192 194 196 195 193 192 193 193 197 201 203 203 201 201 209 207 208 207 217 203 199 219
72 58 41 32 43 222 188 202 200 199 201 201 202 200 199 198 199 199 198 200 200 199 198 199 204 203 203 211 219 216 203 197 220
82 63 51 47 55 63 276 215 222 207 213 213 215 206 202 204 204 207 208 201 201 204 205 205 200 198 199 212 213 218 212 209 216
74 67 54 39 50 44 44 355 235 232 222 234 214 213 205 203 205 211 212 209 206 202 209 213 205 199 193 215 219 227 222 211 213
77 48 51 51 32 62 38 30 337 247 247 235 230 213 215 210 210 214 224 218 208 204 200 219 210 211 205 217 223 222 228 221 217
75 66 36 49 59 130 60 36 20 5 2 295 263 247 243 233 223 222 206 148 309 189 191 189 208 212 221 209 244 224 220 224 216
353 326 264 46 3 40 52 15 352 334 308 298 306 293 275 271 280 243 222 229 209 221 239 254 280 264 239 213 199 217 223 215 218
23 358 280 207 174 273 14 4 57 38 4 223 245 238 250 253 259 245 226 235 238 245 255 282 293 269 244 174 220 227 228 224 214
53 75 71 61 38 2 301 279 34 29 24 331 271 270 267 288 227 232 230 235 248 273 285 264 258 271 269 269 216 228 221 211 217